This is the latest recevied weather packets stored in our database for station/object KC3IEI-9. If no packets are shown the sender has not sent any weather packets the latest 10 day(s).
| Time | Temp. | Humidity | Pressure | Rain* | Wind** | Luminosity | Snow |
|---|---|---|---|---|---|---|---|
| 1787912391 | 26.11° C | 53% | 1029.5 hPa | 0 mm | - | - | - |
| 1787908792 | 26.11° C | 53% | 1029.5 hPa | 0 mm | - | - | - |
| 1787906990 | 26.67° C | 52% | 1029.3 hPa | 0 mm | - | - | - |
| 1787903433 | 26.67° C | 52% | 1029.2 hPa | 0 mm | - | - | - |
| 1787903390 | 26.67° C | 52% | 1029.2 hPa | 0 mm | - | - | - |
| 1787901589 | 26.67° C | 51% | 1029.3 hPa | 0 mm | - | - | - |
| 1787899788 | 26.67° C | 51% | 1029.3 hPa | 0 mm | - | - | - |
| 1787897988 | 26.67° C | 51% | 1029.5 hPa | 0 mm | - | - | - |
| 1787896187 | 26.67° C | 51% | 1029.8 hPa | 0 mm | - | - | - |
| 1787894387 | 26.67° C | 51% | 1030.1 hPa | 0 mm | - | - | - |
| 1787892586 | 26.67° C | 51% | 1029.7 hPa | 0 mm | - | - | - |
| 1787890786 | 27.22° C | 51% | 1029.7 hPa | 0 mm | - | - | - |
| 1787888985 | 27.22° C | 51% | 1029.5 hPa | 0.76 mm | - | - | - |
| 1787887186 | 27.22° C | 51% | 1029.3 hPa | 0.76 mm | - | - | - |
| 1787885385 | 27.22° C | 51% | 1029.3 hPa | 0.76 mm | - | - | - |
| 1787883584 | 27.78° C | 51% | 1028.8 hPa | 0.76 mm | - | - | - |
| 1787881840 | 28.89° C | 50% | 1027.9 hPa | 0.76 mm | - | - | - |
| 1787881784 | 28.89° C | 50% | 1027.9 hPa | 0.76 mm | - | - | - |
| 1787878182 | 28.33° C | 43% | 1028 hPa | 0.76 mm | - | - | - |
| 1787876381 | 27.78° C | 36% | 1027.8 hPa | 0.76 mm | - | - | - |
| 1787871011 | 31.11° C | 30% | 1011.2 hPa | 0.76 mm | - | - | - |
| 1787869211 | 32.78° C | 38% | 1025.4 hPa | 0.76 mm | - | - | - |
* Rain since midnight (hover to see other rain measurements)
** Current wind speed in m/s (hover to see current wind gust speed)